Probability
10 10 9 8 9 10 10 9 8 7 6 6 5 3 3 3 3 2 2 2 2 2 2 1 0 0 0 0 0 0 0 0 0 0 0 0 0 0 0 0 0 0 0
10 10 9 9 9 10 10 9 7 6 6 5 4 2 2 3 3 1 1 1 1 1 1 0 0 0 0 0 0 0 0 0 0 0 0 0 0 0 0 0 0 0 0
11 11 10 9 9 10 8 7 5 4 4 4 3 1 1 2 2 1 0 0 0 0 0 0 0 0 1 1 1 1 2 1 1 0 0 0 0 0 0 0 0 0 0
12 11 10 8 8 7 5 4 4 3 3 3 3 2 1 1 1 0 0 0 0 0 0 0 0 0 1 2 2 3 3 3 2 1 0 0 0 0 0 0 0 0 0
12 11 9 6 5 4 3 3 4 3 3 3 3 2 0 0 0 0 0 0 1 1 0 0 0 0 1 1 2 2 3 3 3 1 0 0 0 0 0 0 0 0 0
13 12 9 6 5 5 4 4 5 4 3 3 3 2 1 0 0 0 0 1 2 2 1 1 1 1 1 1 1 1 1 2 2 1 0 0 0 0 0 0 0 0 0
14 13 11 10 9 7 6 6 6 6 4 4 4 4 3 2 1 1 1 2 3 3 3 2 2 2 2 2 1 1 0 1 1 1 0 0 0 0 0 0 0 0 0
15 14 13 13 12 10 8 8 8 7 6 6 6 6 5 4 3 2 3 3 3 3 3 3 3 3 3 3 3 2 1 0 0 0 0 0 0 0 0 0 0 0 0
17 16 14 13 12 10 8 8 9 8 7 6 6 6 6 6 4 3 3 3 3 3 3 3 3 3 3 3 3 3 2 1 0 0 0 0 0 0 0 0 0 0 0
20 18 15 12 10 8 8 8 8 7 7 6 6 6 6 6 4 3 3 3 3 3 3 3 3 3 3 3 3 3 3 1 0 0 0 0 0 0 0 0 0 0 0
21 19 15 11 8 7 8 9 8 7 6 6 6 6 6 6 4 3 3 3 3 3 3 3 3 3 3 3 3 3 2 1 0 0 0 0 0 0 0 0 0 0 0
20 18 14 10 8 8 9 10 9 7 7 6 6 6 6 5 4 3 3 3 3 3 3 3 3 3 3 1 1 2 1 1 0 0 0 0 0 0 0 0 0 0 0
18 16 12 11 10 10 10 11 10 8 7 6 6 6 6 4 3 3 3 3 3 3 3 3 3 3 2 1 1 1 0 0 0 0 0 0 0 0 0 0 0 0 0
17 15 13 12 12 11 10 10 10 9 8 7 6 6 6 4 3 3 3 3 3 3 3 3 3 2 2 2 2 1 0 0 0 0 0 0 0 0 0 0 0 0 0
16 14 13 12 12 10 9 8 8 8 7 6 6 5 4 3 2 2 2 2 3 3 3 3 3 3 3 3 3 1 0 0 0 0 0 0 0 0 0 0 0 0 0
16 14 12 11 11 10 9 7 5 4 4 3 3 3 2 1 1 1 1 1 1 2 3 3 3 3 3 3 3 2 0 0 0 0 0 0 0 0 0 0 0 0 0
15 13 11 11 11 11 11 8 5 3 2 2 1 1 0 0 0 0 0 0 0 1 3 3 3 3 3 2 2 1 0 0 0 0 0 0 0 0 0 0 0 0 0
15 14 12 12 11 10 11 9 6 4 3 2 2 1 0 0 0 0 0 0 1 1 2 2 2 2 1 1 1 0 0 0 0 0 0 0 0 0 0 0 0 0 0
16 14 13 11 9 8 8 8 6 4 3 3 3 2 1 0 0 0 0 0 1 1 1 1 1 1 0 0 0 0 0 0 0 0 0 0 0 0 0 0 0 0 0
14 12 10 8 7 7 6 6 6 5 4 3 3 2 1 0 0 0 0 0 1 1 0 0 0 0 0 0 0 0 0 0 0 0 0 0 0 0 0 0 0 0 0
11 10 8 7 7 7 7 6 6 4 3 3 3 2 1 0 0 0 0 0 0 0 0 0 0 0 0 0 0 0 0 0 0 0 0 0 0 0 0 0 0 0 0
8 8 8 7 7 7 6 6 5 4 3 3 3 2 1 0 0 0 0 0 0 0 0 0 0 0 0 0 0 0 0 0 0 0 0 0 0 0 0 0 0 0 0
6 6 7 6 5 4 3 4 4 3 3 3 3 2 1 0 0 0 0 0 0 0 0 0 0 0 0 0 0 0 0 0 0 0 0 0 0 0 0 0 0 0 0
4 4 5 4 3 2 1 1 1 2 3 3 1 1 0 0 0 0 0 0 0 0 0 0 0 0 0 0 0 0 0 0 0 0 0 0 0 0 0 0 0 0 0
3 4 4 4 3 1 0 0 0 0 1 2 1 0 0 0 0 0 0 0 0 0 0 0 0 0 0 0 0 0 0 0 0 0 0 0 0 0 0 0 0 0 0
3 4 4 4 3 2 1 0 0 0 0 1 0 0 0 0 0 0 0 0 0 0 0 0 0 0 0 0 0 0 0 0 0 0 0 0 0 0 0 0 0 0 0
Wind_Speed
5 5 4 4 3 3 3 2 1 1 2 2 2 2 3 3 3 3 3 3 4 3 3 4 3 2 2 2 2 2 2 3 4 2 2 3 4 4 4 4 5 5 7
6 5 5 4 4 4 3 2 2 2 2 2 3 3 3 3 3 4 4 4 4 4 3 4 3 3 3 2 2 3 3 3 4 5 2 2 3 3 4 4 5 5 6
6 6 6 5 4 4 3 3 3 3 3 3 3 3 3 3 4 4 4 4 4 4 3 3 3 3 3 3 3 3 3 4 4 5 3 2 2 2 3 4 5 4 5
7 7 6 5 5 4 4 3 3 3 3 3 3 3 3 3 3 3 4 4 4 4 4 3 3 3 3 3 4 4 4 5 5 5 4 3 2 2 2 3 3 3 3
8 7 6 5 5 5 4 3 3 3 3 3 3 3 3 3 3 3 3 4 4 4 4 4 4 5 5 4 4 4 5 5 4 4 4 3 2 2 2 2 3 2 3
8 7 6 5 5 5 4 4 4 4 3 4 4 3 3 3 4 6 5 4 4 4 4 4 4 5 6 7 8 7 6 5 5 4 3 3 3 2 2 3 3 2 2
7 7 6 6 6 5 5 5 4 3 3 4 3 3 3 3 5 6 7 5 5 4 4 4 4 4 5 5 7 8 7 7 5 4 4 3 3 3 4 4 3 2 2
7 7 6 6 6 5 5 5 4 3 3 3 3 3 3 3 6 7 7 5 5 5 4 4 4 4 4 4 5 6 5 5 4 2 2 2 2 3 4 4 4 3 2
7 7 7 7 6 6 5 5 4 4 3 3 2 3 3 3 5 6 6 4 4 4 4 4 3 3 4 5 5 5 5 4 5 7 6 5 6 6 5 4 4 3 2
7 7 6 6 7 6 5 4 3 4 3 3 3 2 2 2 3 5 5 3 3 3 3 4 5 4 4 4 4 4 4 2 3 4 5 6 5 5 5 3 3 3 2
6 6 6 6 6 6 5 4 5 4 4 3 3 2 2 2 2 4 4 3 3 2 2 2 2 4 5 5 4 3 3 3 3 4 4 4 3 3 2 2 1 2 2
7 7 6 6 5 5 6 5 5 5 5 3 2 2 1 1 1 2 3 4 4 3 2 1 1 4 5 5 4 4 6 5 3 3 3 3 2 1 1 1 1 1 1
8 7 6 5 4 5 6 6 5 4 4 3 2 2 0 1 1 2 3 4 5 3 2 2 3 4 5 4 5 5 5 3 3 3 2 1 1 0 1 1 2 2 2
8 6 6 6 5 4 4 4 4 4 4 3 3 2 1 0 0 1 1 2 3 3 2 3 4 5 4 4 4 3 2 2 2 2 1 1 1 1 1 1 1 1 2
7 6 6 5 5 4 3 3 4 4 5 5 4 4 4 3 3 4 3 3 3 3 3 2 2 2 2 2 2 2 2 2 2 1 1 1 1 1 1 1 1 1 1
6 6 5 5 4 4 4 2 2 1 4 5 5 4 3 3 4 4 4 4 5 6 4 2 2 2 2 1 1 1 0 1 1 1 1 1 1 1 1 1 1 1 0
7 6 5 5 5 5 5 5 3 1 2 2 3 5 5 4 5 5 5 5 5 6 3 2 2 2 2 2 2 1 1 1 1 1 1 1 1 1 1 1 1 0 1
7 7 6 5 5 5 5 5 4 4 3 1 0 3 4 5 5 5 6 6 3 2 2 3 3 2 2 2 2 2 2 1 1 1 1 1 2 2 1 1 1 1 1
6 5 5 5 4 4 4 4 4 4 3 2 1 1 2 4 4 5 6 4 4 4 3 3 3 3 3 2 2 2 2 2 2 2 2 2 2 2 2 2 2 2 2
5 7 6 5 5 4 4 4 4 4 3 3 3 3 3 3 3 3 4 4 4 4 4 4 3 3 3 3 2 2 2 2 2 2 2 2 2 2 2 3 2 2 2
4 5 7 5 5 5 4 4 4 4 4 4 4 4 6 5 5 5 4 4 5 4 4 4 3 3 3 3 3 3 3 3 3 3 3 3 2 2 2 2 2 2 2
4 4 4 4 4 4 4 4 4 4 5 4 3 3 7 4 4 4 4 4 4 4 4 4 4 3 4 4 4 4 4 4 3 3 3 3 3 3 3 2 2 2 2
5 5 4 4 4 4 4 4 4 4 4 4 4 4 4 4 4 4 4 4 4 4 3 4 4 3 3 3 3 4 4 4 4 4 4 3 3 3 3 3 3 3 3
5 5 5 4 3 4 4 3 3 4 4 4 4 4 4 4 4 5 4 4 4 4 4 4 4 5 5 4 3 4 4 3 3 3 4 4 3 3 3 2 3 3 3
5 4 4 4 4 4 4 3 3 3 3 4 4 4 4 4 4 4 4 4 4 4 4 4 3 4 5 6 4 3 3 4 3 2 3 3 3 3 2 2 2 2 2
4 4 4 3 3 3 3 3 3 4 4 4 3 3 4 4 4 4 4 4 4 4 4 3 4 4 4 4 4 4 3 3 3 2 2 2 2 2 2 2 2 2 2
Wind_Direction
158 152 147 145 145 138 133 129 114 85 70 66 63 63 60 49 45 54 49 50 60 49 47 63 61 60 68 59 79 94 98 114 123 101 71 63 61 68 64 67 69 65 67
152 143 144 138 130 125 119 107 97 84 70 70 71 69 66 59 55 61 56 53 62 58 48 58 56 70 68 64 78 89 96 101 126 125 93 69 67 79 77 75 70 72 70
143 140 138 138 133 128 119 106 98 91 74 68 74 74 68 65 65 65 67 64 65 63 59 64 63 77 75 72 81 87 93 99 103 120 110 85 77 87 84 76 70 62 72
143 143 146 149 144 137 124 111 104 99 87 76 74 77 81 78 71 71 72 68 62 57 54 57 62 75 88 92 91 92 101 103 105 112 112 102 95 91 98 94 79 58 61
144 148 152 147 138 130 124 115 104 95 91 86 80 68 66 76 74 78 77 73 62 55 49 47 56 70 75 89 102 106 112 113 114 115 116 112 114 126 122 121 106 89 62
147 149 144 141 137 135 131 121 108 96 90 85 78 75 65 64 80 86 89 77 65 59 52 41 50 57 69 78 88 96 108 125 133 132 132 142 150 145 130 136 131 121 98
147 145 144 144 142 144 139 126 121 114 102 92 85 81 74 69 87 91 87 86 72 61 56 48 51 53 63 80 80 77 75 83 106 142 146 160 165 169 155 144 135 120 108
146 147 148 147 147 144 136 134 130 120 114 105 94 89 85 80 91 96 94 86 76 60 52 56 63 50 60 87 92 80 69 60 67 97 130 151 153 162 164 151 139 113 91
152 155 155 152 150 148 145 143 136 128 118 109 104 97 93 82 93 106 105 92 79 62 50 51 62 62 62 91 100 95 78 58 64 72 80 88 97 106 123 124 121 122 112
161 157 152 150 149 152 151 142 129 128 128 121 101 89 99 94 100 114 118 110 93 75 56 47 52 68 74 94 109 110 99 73 67 66 67 71 82 92 95 116 141 140 124
148 143 144 147 149 149 141 134 131 129 123 116 105 83 78 79 99 118 128 128 132 113 83 54 41 62 77 83 97 109 127 120 97 88 81 77 77 77 74 79 112 145 147
142 143 146 148 149 144 140 135 135 135 128 122 110 84 52 50 86 131 137 139 139 128 124 98 65 77 83 86 94 101 106 104 100 93 86 77 77 72 59 58 93 106 124
141 145 147 145 142 145 147 146 143 144 144 148 147 148 125 39 56 129 134 133 136 129 132 122 97 89 87 81 89 103 107 106 105 100 99 79 48 16 56 66 62 71 69
147 149 149 147 145 143 145 154 160 164 164 167 174 179 185 206 219 142 135 132 124 119 115 95 85 80 79 79 76 77 89 107 119 120 114 86 69 81 72 59 68 66 67
151 151 151 152 151 150 149 159 172 185 185 179 189 186 186 210 224 192 166 167 162 151 129 100 84 83 80 69 64 67 76 91 97 102 113 109 101 90 64 53 80 91 87
155 158 160 158 156 157 153 123 65 152 179 185 187 186 205 204 177 171 171 162 153 145 127 126 130 138 150 158 152 119 97 128 147 151 145 147 149 141 113 88 107 128 148
164 165 164 165 166 170 170 167 161 81 96 157 182 184 190 184 175 168 160 146 146 144 140 161 172 180 187 190 194 194 202 214 174 177 175 174 169 169 170 175 172 195 235
160 163 166 172 173 177 179 178 177 175 178 203 169 171 180 179 174 167 152 131 130 155 182 188 197 200 200 205 211 216 213 179 166 182 187 189 187 191 202 215 219 233 245
160 163 164 166 172 175 176 175 175 177 177 176 162 146 163 162 154 156 155 165 180 189 197 204 206 204 204 205 209 205 198 187 180 184 197 203 203 205 222 234 239 238 240
162 163 163 164 168 172 174 173 175 178 185 190 196 193 161 151 165 176 187 194 197 203 201 203 208 207 202 200 197 186 190 201 200 204 213 216 214 213 223 234 240 243 248
159 165 165 165 172 174 176 181 184 185 192 200 208 198 180 185 193 195 196 200 205 209 207 204 204 203 202 198 196 193 197 208 212 217 219 218 213 216 226 232 237 243 253
158 163 168 172 174 177 182 184 184 190 197 202 202 187 186 196 199 202 204 207 209 209 202 201 207 206 202 201 201 203 207 212 214 216 221 221 217 222 224 227 235 241 246
160 163 167 172 176 176 181 187 189 194 197 200 198 191 188 199 202 205 209 208 203 201 197 198 206 207 202 203 205 205 211 218 217 211 214 218 220 222 221 224 229 237 247
159 163 169 174 174 181 187 192 195 197 196 195 198 199 198 200 204 206 208 204 197 195 193 196 205 206 199 199 207 212 218 220 211 207 208 211 217 224 223 227 234 242 246
158 163 169 173 178 184 187 192 197 194 194 198 203 206 204 200 202 204 203 200 197 197 197 197 202 206 207 208 206 209 207 197 193 193 195 202 207 207 219 234 244 252 255
162 164 165 169 178 184 185 189 196 198 202 204 206 206 202 197 196 197 198 193 190 190 192 193 192 191 195 201 203 193 174 164 162 171 180 185 191 198 209 229 246 254 256